Overview Statistics Trail Chart Weather Telemetry Raw packets
 

This is the latest recevied weather packets stored in our database for station/object WP3OF-2. If no packets are shown the sender has not sent any weather packets the latest 10 day(s).

<< 80 81 82 83 84 85 86 >>
Time Temp. Humidity Pressure Rain* Wind** Luminosity Snow
1788017618 25.56° C 87% 1027.1 hPa 0 mm - 636 W/m² -
1788017314 25.56° C 87% 1027.1 hPa 0 mm - 636 W/m² -
1788017011 25° C 88% 1026.7 hPa 0 mm - 913 W/m² -
1788016710 25° C 88% 1026.7 hPa 0 mm - 799 W/m² -
1788016408 25° C 89% 1026.7 hPa 0 mm - 674 W/m² -
1788016102 25.56° C 87% 1026.7 hPa 0 mm - 502 W/m² -
1788015800 25° C 87% 1027.1 hPa 0 mm - 839 W/m² -
1788015496 25° C 85% 1026.7 hPa 0 mm - 264 W/m² -
1788015191 25° C 86% 1026.7 hPa 0 mm - 622 W/m² -
1788014889 25° C 90% 1026.7 hPa 0 mm - 763 W/m² -
1788014584 25° C 90% 1026.7 hPa 0 mm - 763 W/m² -
1788014280 25° C 90% 1026.7 hPa 0 mm - 443 W/m² -
1788013975 24.44° C 92% 1026.7 hPa 0 mm - 822 W/m² -
1788013669 24.44° C 91% 1026.7 hPa 0 mm - 829 W/m² -
1788013364 23.89° C 92% 1026.7 hPa 0 mm - 835 W/m² -
1788013063 24.44° C 91% 1026.7 hPa 0 mm - 828 W/m² -
1788012762 23.89° C 92% 1026.7 hPa 0 mm - 750 W/m² -
1788012458 24.44° C 91% 1026.7 hPa 0 mm - 986 W/m² -
1788012157 24.44° C 92% 1026.7 hPa 0 mm - 799 W/m² -
1788011857 24.44° C 92% 1026.7 hPa 0 mm - 799 W/m² -
1788011555 23.89° C 92% 1026.7 hPa 0 mm - 843 W/m² -
1788011251 23.89° C 91% 1026.7 hPa 0 mm - 801 W/m² -
1788010950 23.89° C 91% 1026.7 hPa 0 mm - 792 W/m² -
1788010645 23.33° C 91% 1026.7 hPa 0 mm - 737 W/m² -
1788010344 23.33° C 91% 1026.7 hPa 0 mm - 744 W/m² -

* Rain latest hour (hover to see other rain measurements)
** Current wind speed in m/s (hover to see current wind gust speed)